Wind_Speed
36 39 42 44 45 46 46 47 47 48 47 46 44 43 41 40 38 37 36 37 37 37 37 38 38 38 37 35 32 30 28 27 25 22 20 19 18 17 16 16 17 18 17 17 17 16 15 13 11 11 10 9 9 9 9 9 10 10 10 10 9 9 9
35 38 41 43 45 46 46 47 47 48 48 47 46 44 43 42 41 40 39 39 39 39 39 40 40 39 38 36 33 31 29 27 25 23 21 20 19 17 17 17 17 17 17 17 16 16 15 14 13 12 11 10 10 10 11 11 11 11 11 11 11 12 12
36 39 42 44 46 47 48 47 48 48 48 48 46 45 44 44 43 42 42 41 41 41 41 42 42 41 39 37 35 33 31 29 26 24 23 21 19 18 17 18 18 18 18 18 17 17 16 15 15 14 13 12 11 11 12 13 12 11 12 13 13 13 13
38 41 43 44 46 48 48 49 49 49 49 48 46 45 44 44 44 44 43 43 43 43 43 44 44 43 41 39 37 35 32 30 28 25 24 22 20 18 19 20 20 20 20 19 19 19 18 17 17 15 15 14 13 13 13 12 11 10 11 12 13 13 14
38 40 40 41 44 46 47 48 49 49 49 48 46 45 44 44 44 45 45 44 44 44 44 45 45 44 42 40 39 36 33 31 29 27 25 23 21 20 21 22 22 23 22 21 21 21 20 19 17 17 17 16 14 14 12 11 10 10 11 12 12 12 12
36 38 40 42 44 46 47 48 50 51 50 49 47 45 44 45 45 46 46 46 46 45 45 45 46 45 44 43 41 38 35 33 32 29 27 25 22 22 23 24 25 25 24 22 22 21 20 19 18 17 18 17 15 13 11 10 11 12 12 12 12 11 11
36 39 41 43 44 46 47 48 50 51 51 50 48 46 46 47 47 47 47 47 47 47 46 47 48 47 47 46 44 42 40 37 35 31 29 27 25 24 24 26 27 26 23 22 21 21 20 19 18 18 18 17 15 12 11 11 12 12 12 12 12 11 11
39 40 42 43 44 45 46 47 48 49 50 50 49 49 48 48 49 49 49 49 49 49 49 49 50 50 50 49 48 46 44 41 37 34 32 29 27 25 26 28 28 25 23 22 22 20 19 19 18 19 18 16 14 12 12 12 12 12 13 12 12 11 10
38 39 41 42 43 44 44 46 47 47 49 50 50 51 50 49 50 50 50 50 50 51 51 51 51 52 52 51 51 49 46 43 40 37 34 32 31 29 28 29 27 24 23 23 21 20 19 19 19 19 18 16 14 13 13 13 13 13 13 12 11 10 9
35 37 39 40 41 42 42 43 44 46 48 49 50 51 51 51 52 52 52 52 52 53 52 52 52 53 54 54 53 51 49 46 43 40 37 35 34 31 29 30 27 24 22 22 21 21 20 20 20 20 18 16 15 14 13 13 13 13 13 12 10 10 10
34 35 36 38 39 40 40 41 43 45 47 49 50 50 51 51 52 52 53 53 53 53 53 53 53 54 55 56 55 53 51 49 46 44 40 38 36 33 31 30 27 23 20 22 23 22 21 22 22 20 19 17 16 15 14 13 13 13 12 11 10 10 10
33 34 36 38 39 39 40 41 42 44 45 47 47 48 49 50 51 51 52 52 53 53 53 53 53 54 55 56 57 56 54 52 51 47 42 39 36 32 30 28 26 23 20 22 24 24 23 24 23 21 20 18 17 15 14 14 13 13 12 12 11 11 10
32 34 36 38 38 39 40 40 41 42 43 44 44 44 45 46 48 49 50 50 51 51 51 51 51 53 55 56 57 58 58 56 54 49 43 39 33 28 27 27 26 24 21 22 24 25 24 24 23 21 20 18 17 15 14 14 14 14 14 13 12 11 11
30 32 35 36 37 39 39 40 41 41 41 41 41 42 43 44 45 46 47 48 48 49 49 50 51 53 55 56 57 59 60 59 55 49 44 40 34 30 30 30 26 23 22 24 26 26 25 25 23 21 20 18 17 15 14 15 15 15 15 14 13 11 11
30 33 35 37 38 39 39 39 40 39 39 40 40 41 41 42 43 44 45 46 46 47 48 50 52 53 54 55 57 58 59 55 49 47 47 44 38 35 36 33 26 23 23 25 26 26 26 25 23 22 21 19 17 16 16 16 16 15 15 14 13 11 11
33 36 39 39 39 39 40 39 39 38 39 39 39 40 40 41 42 42 43 44 44 45 47 49 50 51 51 53 54 54 51 43 37 41 48 48 44 41 39 34 27 24 25 26 26 27 27 25 24 23 22 20 18 17 17 17 16 14 14 14 12 12 12
36 39 40 40 39 39 39 39 38 38 38 39 39 39 39 39 39 39 40 41 42 43 45 46 47 48 49 51 51 49 47 44 42 46 52 53 50 47 42 36 29 25 26 26 26 27 27 26 26 25 23 21 20 19 20 19 16 15 14 14 13 13 14
40 42 41 39 38 39 38 38 39 39 39 39 38 37 36 35 35 36 37 38 39 41 41 42 43 45 47 47 46 46 48 51 52 53 55 55 53 49 43 38 33 29 27 27 27 27 28 28 28 26 23 22 21 21 21 20 17 16 15 15 15 15 17
42 41 39 38 38 38 38 37 37 38 38 36 35 34 32 31 31 31 32 34 36 37 38 39 41 43 43 43 43 45 49 51 52 54 54 52 52 50 43 38 36 33 30 30 28 27 28 29 28 26 23 22 22 22 21 20 18 17 16 15 15 16 18
38 36 35 35 35 35 34 33 33 33 32 28 25 22 20 20 20 21 24 28 31 33 35 36 38 39 40 40 41 44 46 48 49 48 44 44 47 45 39 36 36 33 31 31 29 28 29 30 29 26 24 23 22 21 20 19 18 17 16 15 16 18 21
31 31 32 31 31 31 29 27 26 23 17 11 7 4 4 5 6 10 14 19 23 26 29 32 34 36 37 39 40 42 44 43 41 37 35 40 43 39 37 39 39 33 30 29 28 27 29 30 28 25 23 23 22 21 20 19 17 17 16 17 19 21 23
26 27 26 24 23 20 17 15 13 12 12 11 9 6 3 2 2 5 8 11 16 20 23 27 30 33 35 37 39 41 41 40 40 38 37 39 41 42 44 46 41 34 30 28 27 28 29 30 29 26 23 22 22 22 21 20 18 18 18 19 21 22 23
19 16 14 11 10 11 14 16 16 17 15 12 9 6 3 2 2 4 6 9 12 15 18 21 24 27 30 33 36 38 39 39 41 42 41 39 42 47 49 44 36 32 30 28 27 27 28 29 28 26 24 22 23 24 23 22 20 20 21 22 22 23 23
13 13 15 18 19 19 20 20 19 17 15 11 8 5 5 5 5 4 4 7 8 10 13 15 18 22 26 29 33 35 36 38 39 41 40 40 46 51 45 34 27 28 28 28 26 25 26 30 30 29 27 24 24 24 24 23 23 23 24 24 24 24 24
21 22 23 22 20 19 19 19 17 16 14 10 6 6 5 4 4 3 3 4 5 7 9 12 16 20 23 26 29 30 32 33 34 35 37 41 48 50 41 30 26 28 29 29 29 28 31 34 32 31 29 27 27 28 27 27 27 26 26 27 28 26 24
22 22 20 18 17 19 19 18 16 15 13 8 5 6 6 5 6 6 6 6 7 8 10 13 16 18 20 24 25 26 28 29 30 32 35 37 34 32 32 30 29 30 30 31 32 32 33 34 33 32 30 28 28 28 29 30 28 26 27 28 28 26 23
19 18 16 15 15 16 16 16 14 12 9 6 6 8 8 7 9 11 11 11 11 11 11 13 15 16 19 21 21 23 25 27 29 32 33 27 18 19 27 32 32 32 30 31 30 30 31 31 30 30 30 31 30 29 30 31 28 26 25 25 24 22 21
22 19 17 15 13 11 10 9 7 5 5 5 6 8 8 8 11 13 14 13 11 10 10 11 13 15 16 18 18 19 22 25 28 30 28 21 16 20 29 33 33 31 28 27 26 28 29 29 27 26 27 31 32 31 30 30 26 22 20 19 18 18 18
24 21 19 17 14 11 8 5 2 1 3 4 5 7 8 10 12 14 14 12 10 9 9 10 12 12 13 14 14 15 18 22 26 27 24 19 19 24 30 31 28 24 22 22 24 25 24 24 25 25 27 30 30 27 27 25 19 16 15 14 15 16 18
23 21 19 18 16 14 11 9 8 7 7 7 7 8 10 12 13 13 12 10 9 9 10 10 10 9 9 10 11 12 15 18 21 23 23 21 21 23 24 23 21 18 18 19 20 21 21 24 24 24 27 30 26 21 20 19 15 13 13 13 14 16 18
22 21 19 18 16 13 11 9 8 8 8 8 8 8 9 11 11 11 10 9 8 9 10 11 9 6 6 8 9 10 14 17 19 21 23 22 18 15 14 14 15 14 14 13 12 15 18 21 23 25 27 26 21 15 13 14 14 13 12 12 14 15 17
18 18 16 16 15 12 10 9 8 8 10 11 11 10 9 9 9 10 10 9 9 11 12 10 8 5 6 8 10 13 16 17 19 22 24 21 15 11 11 11 11 11 11 9 9 10 13 15 21 26 25 22 17 13 12 13 12 11 11 13 14 15 16
10 8 9 11 11 9 7 7 7 8 10 12 12 11 12 12 10 11 12 11 11 12 11 9 7 6 7 9 13 16 17 17 18 22 23 19 14 11 12 12 12 11 9 8 9 11 14 17 22 22 20 17 15 13 12 12 11 11 12 13 14 15 15
6 5 7 9 9 6 2 1 2 3 5 9 10 9 11 13 12 13 14 12 10 10 8 6 6 7 8 11 14 15 15 17 20 21 19 16 16 17 17 16 15 12 8 8 13 15 16 19 20 18 16 15 14 13 13 12 12 11 12 13 14 14 15
3 2 2 3 3 3 3 3 2 3 5 8 8 7 9 12 13 14 13 9 7 6 5 5 7 9 10 12 13 13 15 18 20 20 19 20 22 21 19 19 16 12 12 14 16 15 15 17 18 15 13 13 13 13 13 12 11 11 12 14 14 14 15
1 3 4 3 3 2 3 4 2 2 3 6 5 7 11 13 14 13 9 5 4 3 3 5 6 8 10 11 11 11 13 17 20 22 24 25 21 18 19 20 17 12 12 13 12 11 14 18 17 13 13 14 15 15 14 12 11 12 13 14 15 14 14
4 4 4 5 4 3 5 5 3 2 1 1 3 8 11 13 13 11 7 3 1 1 2 4 4 7 8 9 10 10 12 15 20 24 25 23 19 18 19 18 13 11 10 10 10 13 17 19 18 15 15 16 16 15 13 12 12 12 14 15 14 14 13
6 5 4 5 5 4 4 4 3 2 3 5 7 9 11 12 10 9 7 5 3 4 4 3 2 5 8 10 11 13 13 15 18 21 22 21 19 18 18 16 13 11 11 11 12 15 18 19 19 17 16 16 16 15 14 12 12 13 14 15 14 13 12
Wind_Direction
209 210 211 213 215 216 218 219 220 222 223 224 223 222 222 221 222 221 219 218 218 217 217 218 218 218 218 217 217 218 220 223 226 228 232 238 242 243 245 246 248 249 248 249 252 251 246 246 251 254 247 234 227 231 240 245 244 243 241 238 230 225 225
207 209 210 212 214 215 217 219 220 221 222 224 224 223 223 221 221 220 218 217 216 215 214 216 217 218 218 217 217 218 220 224 227 229 234 238 241 244 244 245 246 247 248 249 248 244 241 245 249 248 238 228 227 231 236 237 237 238 239 240 235 232 234
205 208 210 211 212 214 216 217 219 221 222 224 224 224 223 221 220 220 218 217 216 215 214 216 216 217 218 217 217 218 220 224 226 228 232 236 239 243 244 243 243 243 245 243 241 239 240 245 245 240 234 231 229 229 229 229 230 235 240 242 243 242 242
205 210 211 211 213 214 215 215 217 219 221 224 225 225 224 222 221 220 220 220 218 216 214 214 216 216 217 217 218 218 220 223 226 227 230 233 237 241 242 240 238 238 237 236 236 237 237 239 239 235 231 230 229 227 227 227 232 241 246 248 250 250 251
204 209 209 210 212 213 214 214 216 218 220 223 225 226 227 225 224 224 224 223 223 221 218 218 219 218 218 218 219 219 218 221 224 225 228 231 233 238 239 236 234 233 232 232 233 234 234 234 234 231 227 226 227 228 229 236 247 255 258 258 258 258 258
201 205 207 209 211 213 213 213 215 218 221 223 225 227 227 227 228 227 226 226 226 225 223 223 222 220 219 219 219 219 217 219 221 223 226 228 230 235 237 235 233 229 227 228 230 232 233 233 231 228 225 222 223 227 235 246 254 260 261 258 258 261 263
202 205 207 210 211 213 213 213 215 218 221 224 225 226 227 227 228 229 229 228 227 227 226 225 224 222 220 220 219 219 219 219 220 220 223 226 229 233 235 234 230 226 224 226 229 231 231 231 229 227 223 220 220 226 238 248 254 258 256 251 253 259 262
207 208 208 211 213 214 213 214 215 217 219 221 223 225 227 228 229 230 230 229 229 228 227 226 224 223 222 221 221 221 221 221 221 220 221 222 226 229 233 233 228 222 223 225 227 229 228 227 226 223 219 216 219 228 237 245 250 251 249 247 251 256 259
209 210 211 213 214 214 215 215 216 217 219 221 223 226 227 229 230 230 230 230 229 229 228 227 226 225 224 224 223 223 223 223 223 221 220 221 222 224 229 231 225 219 222 226 227 227 225 222 220 218 216 215 221 229 235 243 246 245 244 244 248 254 259
208 210 213 214 214 215 216 216 216 217 218 221 223 225 227 229 230 231 231 231 230 230 230 229 229 228 227 226 226 225 225 224 224 223 221 221 220 220 225 228 222 217 223 228 229 227 222 216 214 213 215 217 222 228 235 242 244 243 241 243 250 259 266
209 210 211 212 213 215 216 216 217 218 220 222 224 226 227 229 231 232 232 231 231 232 232 231 231 230 230 229 229 228 227 227 227 225 222 221 220 218 224 227 219 213 224 233 231 227 220 213 211 212 216 219 223 229 235 241 244 244 244 248 256 264 272
209 210 211 212 213 215 217 218 220 221 223 224 226 228 230 231 233 233 233 232 233 233 233 232 232 232 232 232 231 231 231 230 230 228 224 223 222 220 225 228 219 214 225 234 231 227 220 213 211 214 217 221 225 230 235 240 244 247 249 252 256 262 272
209 211 213 214 214 216 217 220 223 225 226 227 229 231 233 234 235 235 235 235 234 234 233 232 233 233 234 234 234 234 234 232 232 230 227 225 224 224 229 231 227 224 229 234 232 228 222 216 213 215 219 222 226 230 235 241 245 248 250 251 251 256 266
209 213 215 216 215 216 217 221 226 227 228 230 232 233 235 235 236 236 236 236 235 233 233 233 234 234 235 236 236 236 237 236 232 227 225 223 221 224 228 227 226 229 231 232 233 229 224 219 216 217 221 223 226 231 235 241 246 249 250 248 246 251 259
208 213 217 217 216 216 220 224 226 229 231 233 233 234 235 236 236 236 237 237 236 235 234 235 236 236 236 237 238 239 240 236 227 221 224 222 217 219 223 219 218 225 229 231 232 230 226 222 220 221 224 225 227 231 235 240 245 247 246 243 242 246 253
208 214 217 218 218 218 221 224 227 230 233 233 234 236 237 237 238 238 239 239 238 237 237 238 238 238 238 238 240 240 238 231 218 218 224 222 216 218 218 213 214 222 227 230 232 231 227 223 223 224 224 225 228 231 234 239 242 242 239 237 239 244 251
210 215 217 219 219 220 222 224 227 230 232 234 237 238 239 240 241 242 243 242 241 241 241 240 240 240 240 241 241 238 234 231 227 227 227 221 216 216 215 212 215 220 223 225 229 231 230 226 226 226 225 226 229 232 235 237 238 235 232 234 239 247 253
212 215 217 218 220 221 223 224 226 230 233 236 239 241 243 246 247 248 250 248 247 246 243 242 243 243 242 242 240 236 236 237 236 235 230 221 214 210 208 209 212 213 217 224 229 232 232 230 229 228 226 228 230 233 235 237 237 235 233 234 240 248 257
213 214 215 219 222 224 225 226 228 232 235 239 244 248 253 256 258 261 263 258 253 250 248 247 246 245 243 241 240 238 239 240 241 239 232 220 210 205 203 206 208 205 209 217 224 231 234 234 232 230 228 230 232 234 237 239 240 239 240 244 250 259 266
213 212 214 220 224 226 228 229 231 236 241 246 252 257 263 267 271 276 274 266 260 256 254 251 249 245 243 243 242 242 242 243 244 240 226 211 206 204 201 204 207 205 204 208 216 228 234 234 233 231 230 232 234 237 240 241 241 243 248 256 263 269 273
208 209 214 219 224 229 232 233 234 235 234 230 224 229 260 281 290 288 279 271 267 263 259 256 251 247 245 246 245 245 246 245 241 234 218 207 208 207 200 201 205 202 199 205 212 219 226 232 233 232 233 235 237 239 241 241 241 244 252 261 268 274 277
207 209 218 224 228 229 222 211 200 179 159 144 127 114 94 60 351 311 292 281 273 267 263 258 254 250 249 249 249 249 248 245 242 237 226 213 209 207 202 204 206 199 195 205 212 212 222 233 235 233 237 240 240 240 240 241 243 249 258 265 271 276 280
207 207 210 200 178 156 143 144 144 143 144 137 123 116 123 160 251 291 292 288 283 277 272 266 261 258 257 256 257 254 251 249 246 243 235 219 207 204 204 204 203 193 191 202 208 207 218 231 234 237 242 243 244 245 245 247 250 255 261 266 270 275 280
163 147 140 133 130 130 134 141 145 148 148 141 137 155 177 195 220 242 265 286 294 291 288 283 276 270 265 264 264 260 257 255 250 246 241 225 209 204 203 200 194 187 187 197 203 207 221 234 242 248 248 245 246 249 250 251 252 254 258 263 270 276 281
130 129 129 127 130 137 142 147 151 153 154 151 155 174 186 206 223 230 249 279 294 293 289 285 279 273 270 269 267 263 260 257 251 246 239 224 211 205 202 200 197 191 191 202 213 222 233 241 249 253 251 250 252 252 253 255 256 257 263 271 277 279 279
128 132 135 135 142 149 151 155 158 158 159 159 168 183 199 222 226 227 237 244 254 266 272 274 276 277 275 272 267 262 256 250 247 240 227 216 208 200 195 198 198 194 201 218 228 234 240 245 252 256 257 260 262 260 259 259 260 265 274 279 279 274 272
118 121 124 124 133 142 148 154 156 159 170 187 200 204 213 229 232 233 235 236 243 255 265 274 278 278 276 270 263 257 250 243 241 236 222 209 196 186 190 195 193 196 214 232 238 243 248 252 258 264 266 267 269 269 266 263 264 270 276 276 270 266 269
99 98 97 96 100 112 128 146 163 182 206 220 222 227 238 250 251 245 240 241 249 257 267 275 277 277 278 272 261 252 246 239 234 229 219 208 198 193 192 192 194 206 227 244 250 253 254 257 264 269 267 265 268 270 268 267 267 267 266 263 260 262 268
87 84 83 82 81 80 81 77 57 339 298 291 283 277 277 274 265 251 242 243 250 259 268 272 274 279 280 272 261 253 244 234 226 220 214 205 196 191 189 193 204 222 244 258 261 259 260 265 269 270 267 266 267 268 268 268 265 257 252 253 256 263 269
82 80 78 74 68 62 54 43 32 21 2 340 322 304 291 284 273 256 246 249 259 269 274 272 273 279 275 262 255 248 235 223 215 213 208 196 189 190 195 206 222 239 258 268 264 259 265 272 272 271 269 266 263 261 260 257 251 246 249 256 263 269 272
75 75 74 70 64 54 46 39 31 21 7 348 330 313 299 291 280 264 257 264 273 277 276 275 275 273 257 244 232 217 210 207 208 207 197 187 188 201 215 229 240 250 265 274 264 255 261 266 266 268 267 263 262 257 242 234 235 243 255 267 273 276 276
66 65 64 63 61 58 53 45 35 25 10 354 343 335 323 307 290 277 272 274 281 282 280 279 277 257 231 219 201 193 198 205 208 204 195 192 204 222 229 232 235 237 244 254 256 257 261 265 268 268 265 261 260 248 228 225 237 252 268 278 280 279 278
55 46 35 33 37 44 50 45 39 35 22 6 357 348 329 313 300 289 279 275 281 284 280 274 264 240 216 205 200 201 205 205 203 203 206 212 219 215 205 200 197 199 213 241 261 260 258 262 263 261 257 254 247 234 230 240 253 265 278 284 283 283 281
51 29 10 3 1 356 345 18 42 23 0 352 348 332 309 298 288 275 266 265 274 280 274 260 240 220 209 207 207 204 198 195 199 208 212 209 201 195 187 176 171 174 195 250 269 265 258 258 256 252 251 248 239 235 243 251 258 272 286 291 291 289 285
60 21 344 330 329 321 305 309 339 344 349 355 346 310 281 273 263 254 252 263 282 282 260 231 211 205 205 205 202 193 185 189 199 206 201 190 189 193 187 178 178 192 216 242 258 259 253 252 254 255 252 241 235 241 248 250 261 280 293 296 296 292 286
300 286 284 264 222 226 295 315 343 7 10 9 338 283 263 253 246 245 251 276 313 304 248 212 200 202 204 201 196 192 189 191 195 197 193 190 192 196 192 191 201 221 236 243 247 241 240 243 245 243 237 233 237 246 248 252 269 285 294 298 297 291 286
316 300 293 282 266 264 276 276 260 237 270 308 267 255 251 246 243 246 250 257 338 307 207 190 189 197 199 197 193 192 193 193 193 193 193 192 194 198 200 207 225 246 249 242 233 228 233 234 231 228 231 236 244 249 251 260 275 287 296 300 297 291 288
340 329 316 303 305 306 289 278 276 258 237 234 239 243 246 245 244 240 232 216 193 180 171 161 177 189 186 186 189 192 198 199 197 196 196 198 203 210 218 230 246 254 247 237 229 228 229 229 228 231 238 245 250 253 256 267 280 292 299 301 298 294 292
Height
1473 1475 1478 1480 1483 1485 1487 1491 1494 1497 1499 1502 1504 1507 1510 1512 1514 1516 1517 1518 1519 1521 1522 1523 1525 1526 1528 1529 1531 1533 1534 1536 1537 1538 1539 1541 1542 1542 1543 1543 1544 1545 1545 1546 1547 1547 1548 1548 1548 1549 1549 1549 1549 1550 1550 1551 1551 1551 1552 1552 1551 1551 1551
1468 1471 1474 1476 1479 1481 1484 1487 1490 1493 1496 1498 1501 1504 1507 1509 1511 1512 1513 1514 1515 1517 1519 1520 1522 1523 1525 1527 1529 1531 1532 1534 1535 1537 1538 1539 1540 1541 1541 1542 1542 1543 1543 1544 1545 1546 1546 1547 1547 1547 1548 1548 1548 1548 1549 1549 1550 1550 1550 1551 1550 1550 1550
1463 1466 1468 1470 1473 1476 1480 1483 1486 1488 1491 1494 1497 1500 1503 1504 1506 1507 1508 1510 1512 1514 1516 1517 1519 1521 1523 1525 1526 1528 1530 1532 1533 1534 1535 1537 1538 1539 1540 1540 1540 1541 1541 1542 1543 1544 1545 1545 1545 1546 1546 1546 1547 1547 1547 1548 1548 1549 1549 1549 1549 1549 1549
1458 1460 1462 1466 1469 1472 1475 1478 1481 1484 1487 1490 1493 1496 1498 1500 1502 1504 1506 1508 1509 1511 1513 1514 1515 1518 1520 1522 1524 1526 1528 1530 1531 1532 1533 1534 1536 1537 1537 1538 1538 1539 1540 1540 1541 1542 1542 1543 1543 1544 1544 1545 1546 1546 1546 1547 1547 1547 1547 1548 1548 1548 1548
1452 1455 1460 1463 1465 1469 1471 1474 1477 1480 1483 1487 1489 1493 1495 1497 1500 1502 1504 1505 1507 1509 1511 1512 1514 1516 1518 1520 1521 1524 1525 1527 1528 1529 1530 1532 1533 1534 1534 1535 1536 1537 1538 1539 1539 1540 1540 1540 1541 1542 1543 1544 1544 1545 1545 1545 1545 1545 1546 1546 1546 1546 1546
1449 1452 1455 1458 1460 1463 1466 1469 1473 1476 1479 1482 1485 1489 1491 1494 1497 1498 1501 1503 1505 1507 1509 1510 1512 1513 1516 1517 1518 1521 1522 1523 1524 1526 1527 1529 1530 1531 1532 1533 1534 1535 1536 1536 1537 1537 1537 1538 1539 1540 1541 1542 1543 1544 1544 1544 1544 1544 1544 1544 1544 1545 1545
1446 1448 1450 1453 1456 1459 1462 1466 1469 1472 1476 1479 1481 1485 1487 1490 1493 1495 1497 1499 1501 1504 1505 1507 1508 1510 1512 1513 1514 1516 1517 1519 1520 1522 1524 1525 1527 1528 1530 1531 1533 1533 1534 1534 1534 1535 1536 1537 1538 1539 1540 1541 1542 1542 1542 1542 1543 1542 1542 1543 1543 1543 1543
1441 1443 1446 1449 1451 1455 1459 1462 1465 1469 1472 1476 1479 1481 1484 1487 1489 1491 1493 1495 1497 1499 1501 1502 1504 1505 1507 1508 1510 1512 1513 1515 1517 1518 1520 1522 1524 1526 1527 1529 1531 1531 1531 1532 1532 1533 1535 1536 1538 1539 1539 1540 1540 1541 1541 1541 1541 1541 1541 1541 1541 1541 1542
1438 1441 1443 1446 1449 1452 1456 1458 1462 1466 1469 1472 1474 1476 1479 1482 1483 1485 1488 1490 1492 1494 1495 1497 1499 1501 1503 1504 1506 1507 1509 1511 1513 1514 1516 1518 1519 1522 1524 1527 1528 1529 1530 1531 1531 1532 1534 1535 1536 1538 1538 1538 1538 1539 1540 1540 1540 1540 1540 1540 1540 1540 1540
1436 1439 1441 1444 1448 1450 1454 1456 1460 1463 1465 1467 1469 1471 1474 1476 1478 1481 1483 1485 1487 1488 1491 1493 1495 1497 1499 1500 1502 1504 1505 1507 1509 1511 1512 1514 1516 1518 1521 1524 1525 1527 1529 1530 1531 1530 1531 1533 1534 1535 1536 1536 1537 1538 1538 1539 1539 1539 1539 1539 1539 1539 1539
1433 1437 1439 1443 1446 1449 1452 1454 1456 1458 1460 1463 1465 1467 1470 1472 1474 1476 1478 1481 1483 1485 1488 1490 1492 1494 1495 1497 1498 1500 1501 1503 1505 1507 1508 1510 1513 1516 1519 1522 1523 1525 1526 1528 1528 1528 1529 1530 1532 1533 1534 1534 1535 1536 1537 1538 1538 1538 1537 1537 1538 1538 1538
1432 1435 1437 1440 1442 1445 1448 1450 1452 1455 1457 1460 1462 1464 1466 1469 1471 1473 1475 1478 1480 1482 1485 1487 1489 1491 1492 1493 1495 1495 1497 1499 1500 1503 1506 1510 1514 1517 1521 1523 1524 1523 1524 1525 1526 1526 1527 1528 1529 1530 1532 1533 1534 1535 1535 1536 1536 1536 1536 1536 1536 1536 1536
1429 1432 1435 1437 1440 1442 1445 1447 1449 1452 1454 1457 1459 1461 1464 1466 1468 1470 1472 1474 1477 1480 1483 1485 1486 1488 1488 1489 1490 1491 1492 1493 1495 1501 1507 1513 1519 1523 1525 1526 1525 1523 1523 1524 1524 1525 1526 1527 1527 1528 1529 1531 1532 1532 1533 1533 1533 1533 1533 1533 1533 1533 1534
1428 1431 1433 1436 1438 1440 1442 1444 1447 1449 1452 1454 1457 1459 1462 1464 1466 1468 1469 1471 1474 1477 1479 1481 1482 1483 1483 1484 1485 1485 1486 1488 1491 1499 1506 1511 1517 1520 1521 1522 1523 1522 1522 1523 1523 1523 1524 1525 1526 1527 1528 1528 1529 1530 1530 1530 1530 1531 1530 1531 1531 1531 1531
1426 1428 1430 1432 1435 1437 1440 1442 1444 1446 1449 1452 1454 1457 1459 1461 1463 1465 1467 1469 1471 1474 1475 1476 1477 1477 1478 1480 1480 1481 1484 1486 1489 1496 1502 1505 1508 1511 1512 1514 1516 1517 1519 1521 1522 1522 1522 1523 1524 1525 1526 1526 1526 1527 1527 1527 1528 1528 1528 1529 1529 1529 1529
1422 1424 1426 1428 1431 1434 1437 1439 1442 1445 1447 1449 1452 1454 1456 1458 1460 1462 1464 1466 1469 1470 1471 1472 1472 1474 1475 1476 1477 1481 1485 1487 1490 1496 1500 1500 1500 1501 1505 1509 1511 1511 1514 1517 1519 1520 1521 1522 1522 1523 1523 1523 1523 1524 1524 1524 1525 1525 1526 1526 1527 1527 1527
1418 1420 1421 1424 1429 1432 1435 1438 1441 1443 1445 1447 1449 1451 1453 1455 1457 1460 1462 1464 1466 1467 1468 1469 1471 1472 1473 1474 1476 1480 1482 1480 1482 1486 1489 1489 1491 1494 1500 1506 1509 1510 1512 1514 1516 1518 1519 1519 1520 1520 1520 1520 1521 1521 1521 1522 1523 1523 1524 1524 1524 1525 1525
1413 1415 1418 1422 1426 1429 1433 1436 1438 1440 1442 1445 1447 1449 1451 1454 1456 1458 1460 1462 1463 1465 1466 1468 1469 1470 1471 1472 1475 1477 1475 1473 1473 1475 1476 1480 1485 1491 1498 1502 1504 1506 1509 1512 1514 1515 1516 1517 1517 1517 1518 1518 1518 1518 1518 1519 1520 1521 1521 1521 1522 1522 1523
1408 1411 1415 1420 1424 1427 1430 1433 1436 1438 1440 1443 1446 1448 1451 1453 1455 1457 1458 1459 1461 1463 1464 1465 1466 1468 1469 1471 1473 1473 1471 1470 1470 1470 1471 1475 1482 1488 1493 1497 1498 1499 1501 1506 1509 1511 1513 1514 1514 1515 1515 1515 1515 1515 1516 1517 1518 1519 1519 1519 1520 1520 1520
1407 1410 1415 1419 1422 1425 1428 1431 1434 1437 1440 1443 1446 1449 1451 1453 1454 1455 1456 1457 1459 1460 1461 1463 1464 1466 1467 1469 1470 1470 1469 1469 1469 1470 1472 1476 1483 1487 1489 1494 1497 1496 1496 1499 1503 1507 1509 1511 1512 1513 1513 1512 1513 1513 1514 1515 1516 1516 1517 1517 1517 1518 1518
1406 1410 1414 1417 1420 1423 1427 1430 1433 1437 1440 1444 1446 1447 1449 1451 1452 1453 1454 1455 1456 1457 1459 1460 1461 1463 1465 1466 1467 1468 1468 1469 1470 1472 1474 1478 1484 1487 1487 1488 1491 1492 1494 1496 1499 1503 1505 1507 1509 1510 1510 1510 1511 1511 1512 1513 1514 1514 1514 1514 1515 1515 1514
1406 1409 1413 1416 1420 1423 1426 1429 1432 1436 1440 1442 1444 1446 1448 1449 1451 1451 1452 1452 1453 1454 1456 1457 1459 1460 1462 1463 1464 1465 1466 1467 1467 1469 1471 1474 1477 1479 1478 1479 1481 1485 1489 1493 1497 1499 1501 1503 1505 1507 1508 1508 1509 1509 1509 1510 1511 1512 1512 1512 1512 1512 1511
1408 1410 1414 1417 1420 1423 1426 1430 1433 1436 1439 1441 1443 1445 1447 1448 1449 1449 1450 1451 1451 1452 1453 1454 1455 1457 1458 1460 1461 1461 1463 1463 1463 1464 1467 1469 1471 1473 1473 1476 1479 1484 1488 1492 1494 1495 1497 1499 1502 1503 1505 1506 1506 1506 1507 1508 1509 1509 1509 1509 1509 1508 1508
1408 1411 1415 1418 1421 1424 1427 1431 1434 1437 1439 1441 1443 1445 1446 1447 1448 1448 1449 1449 1450 1450 1451 1451 1452 1454 1455 1457 1458 1459 1461 1461 1461 1463 1463 1465 1468 1469 1471 1477 1482 1485 1488 1490 1492 1493 1495 1497 1498 1500 1502 1503 1503 1504 1504 1505 1505 1506 1505 1505 1505 1504 1504
1408 1412 1416 1418 1422 1425 1428 1432 1434 1436 1438 1441 1443 1444 1445 1446 1446 1446 1447 1448 1449 1449 1450 1450 1451 1452 1454 1455 1456 1458 1459 1460 1461 1462 1462 1463 1463 1463 1467 1476 1482 1485 1487 1489 1490 1492 1493 1494 1495 1496 1497 1498 1500 1500 1501 1501 1502 1503 1503 1502 1502 1501 1501
1410 1414 1417 1420 1423 1426 1429 1431 1433 1436 1438 1440 1442 1443 1444 1444 1444 1445 1445 1446 1447 1448 1448 1449 1450 1451 1452 1453 1454 1456 1457 1458 1460 1460 1460 1461 1462 1464 1470 1476 1479 1483 1486 1487 1488 1489 1490 1491 1492 1492 1493 1494 1496 1497 1498 1499 1500 1500 1500 1499 1498 1498 1498
1414 1417 1420 1423 1425 1427 1429 1431 1433 1435 1437 1438 1439 1441 1441 1442 1442 1442 1443 1444 1445 1446 1446 1447 1448 1449 1450 1451 1453 1455 1456 1457 1458 1458 1459 1462 1466 1469 1472 1474 1475 1479 1483 1485 1486 1487 1488 1489 1490 1490 1491 1491 1492 1494 1495 1496 1497 1497 1497 1496 1495 1495 1495
1416 1419 1422 1425 1427 1429 1431 1433 1434 1435 1436 1437 1438 1439 1440 1440 1441 1441 1441 1442 1444 1444 1445 1446 1447 1448 1449 1450 1451 1453 1454 1455 1457 1458 1459 1462 1465 1467 1469 1471 1474 1477 1480 1483 1484 1486 1487 1487 1487 1488 1489 1489 1489 1490 1491 1492 1494 1494 1493 1493 1492 1493 1493
1418 1421 1424 1426 1428 1430 1432 1434 1435 1435 1436 1436 1437 1439 1439 1440 1440 1439 1440 1441 1442 1443 1445 1445 1446 1447 1447 1448 1450 1451 1452 1454 1456 1458 1460 1461 1463 1465 1468 1471 1474 1477 1480 1483 1484 1484 1484 1485 1486 1487 1487 1487 1487 1488 1489 1490 1491 1491 1491 1491 1491 1491 1491
1421 1423 1425 1427 1429 1431 1433 1434 1434 1434 1435 1436 1437 1438 1439 1439 1439 1439 1439 1440 1442 1443 1444 1444 1445 1446 1446 1447 1449 1450 1451 1453 1455 1457 1458 1460 1462 1465 1468 1471 1474 1477 1480 1481 1481 1482 1483 1483 1484 1485 1484 1484 1484 1486 1487 1487 1488 1488 1489 1488 1488 1488 1488
1424 1425 1426 1427 1429 1432 1433 1435 1435 1435 1436 1436 1437 1438 1439 1439 1439 1439 1439 1440 1441 1442 1442 1443 1444 1444 1445 1446 1448 1450 1451 1453 1454 1455 1457 1459 1462 1464 1468 1470 1473 1476 1478 1479 1479 1481 1481 1482 1482 1482 1481 1481 1482 1483 1484 1485 1486 1487 1486 1486 1486 1486 1485
1429 1429 1428 1429 1431 1433 1434 1434 1435 1436 1436 1437 1438 1438 1439 1439 1439 1440 1440 1440 1441 1441 1441 1442 1442 1443 1444 1445 1447 1449 1451 1453 1454 1455 1457 1459 1461 1463 1465 1468 1470 1473 1475 1476 1478 1479 1480 1480 1479 1479 1479 1480 1480 1481 1482 1483 1484 1484 1484 1484 1484 1483 1482
1432 1432 1431 1432 1433 1434 1434 1434 1434 1435 1435 1437 1438 1439 1440 1441 1440 1441 1441 1440 1440 1440 1441 1441 1442 1443 1444 1445 1446 1448 1450 1452 1453 1455 1456 1458 1460 1461 1463 1465 1467 1470 1472 1473 1475 1476 1477 1477 1477 1477 1478 1479 1479 1480 1480 1481 1482 1482 1482 1482 1481 1480 1480
1431 1432 1432 1433 1433 1433 1433 1433 1433 1433 1433 1435 1436 1438 1440 1440 1440 1441 1441 1440 1440 1440 1440 1440 1441 1442 1443 1444 1446 1447 1448 1450 1452 1453 1454 1456 1458 1459 1461 1463 1464 1467 1469 1470 1472 1473 1473 1474 1475 1476 1477 1477 1478 1478 1478 1479 1480 1480 1480 1479 1478 1477 1477
1430 1431 1432 1432 1432 1432 1431 1431 1431 1430 1430 1431 1433 1434 1436 1437 1438 1439 1439 1439 1438 1438 1439 1440 1441 1441 1443 1443 1444 1446 1447 1449 1450 1451 1452 1454 1455 1456 1459 1461 1463 1464 1465 1467 1469 1470 1471 1472 1474 1475 1476 1476 1477 1477 1477 1477 1478 1477 1477 1476 1475 1474 1474
1430 1431 1430 1430 1430 1431 1430 1429 1428 1428 1427 1427 1429 1432 1433 1435 1436 1437 1437 1437 1437 1437 1438 1439 1440 1441 1442 1443 1444 1445 1446 1447 1449 1449 1451 1452 1453 1455 1457 1459 1461 1462 1463 1465 1466 1467 1469 1471 1472 1474 1475 1475 1475 1474 1475 1475 1475 1475 1474 1473 1472 1472 1471
1430 1429 1429 1429 1429 1429 1429 1428 1427 1426 1425 1425 1427 1430 1432 1433 1435 1435 1435 1436 1436 1437 1438 1439 1440 1440 1441 1442 1443 1444 1445 1446 1447 1448 1450 1452 1453 1454 1456 1458 1460 1461 1462 1463 1464 1466 1467 1469 1471 1472 1473 1473 1472 1472 1472 1473 1472 1472 1471 1470 1470 1469 1468
1429 1428 1428 1427 1427 1427 1427 1426 1425 1425 1425 1425 1427 1429 1431 1433 1434 1434 1435 1436 1437 1437 1438 1439 1439 1440 1441 1442 1443 1444 1445 1446 1447 1448 1450 1451 1452 1454 1455 1456 1457 1458 1460 1461 1462 1464 1466 1468 1469 1470 1470 1470 1470 1470 1470 1470 1470 1469 1469 1468 1467 1466 1465